Stations météo

Publicité
Bastia, France (7790): Température de l'air & dewpoint: 04.12.2018 16:00:00 - 10.12.2018 16:00:00 (CET)Bastia, France (7790): Température de l'air 5cm: 04.12.2018 16:00:00 - 10.12.2018 16:00:00 (CET)Bastia, France (7790): Température de l'air -20cm & Température de l'air -100cm: 04.12.2018 16:00:00 - 10.12.2018 16:00:00 (CET)Bastia, France (7790): Vitesse du vent & gusts: 04.12.2018 16:00:00 - 10.12.2018 16:00:00 (CET)Bastia, France (7790): Direction du vent: 04.12.2018 16:00:00 - 10.12.2018 16:00:00 (CET)Bastia, France (7790): reduced air pressure: 04.12.2018 16:00:00 - 10.12.2018 16:00:00 (CET)Bastia, France (7790): visibility: 04.12.2018 16:00:00 - 10.12.2018 16:00:00 (CET)Bastia, France (7790): Ensoleillement: 04.12.2018 16:00:00 - 10.12.2018 16:00:00 (CET)Bastia, France (7790): Quantités de précipitations: 04.12.2018 16:00:00 - 10.12.2018 16:00:00 (CET)
Date & Time tt [°C] td [°C] tt 5cm [°C] tt -20cm [°C] tt -100cm [°C] ff [km/h] ff [knt] fx [km/h] fx [knt] dd ppp [hPa] vv [km] sd [min] rr [mm]
10.12.2018 16:00:00 15,2 1,0 13,9 12,7 15,2 22 12 44 24 WNW 1017,9 43 60 0,0
10.12.2018 15:00:00 16,0 1,3 17,1 12,7 15,2 31 17 52 28 WNW 1017,6 29 60 0,0
10.12.2018 14:00:00 16,4 0,9 19,2 12,7 15,1 27 14 53 29 NW 1017,5 33 60 0,0
10.12.2018 13:00:00 16,7 1,9 19,8 12,7 15,2 27 14 47 26 NW 1017,4 37 60 0,0
10.12.2018 12:00:00 16,8 3,8 18,6 12,7 15,2 30 16 54 29 WNW 1017,4 46 60 0,0
10.12.2018 11:00:00 16,7 3,7 17,6 12,7 15,2 21 12 55 30 NW 1017,2 57 60 0,0
10.12.2018 10:00:00 16,3 3,4 11,4 12,8 15,2 26 14 51 28 W 1016,9 60 60 0,0
10.12.2018 09:00:00 13,0 3,9 8,2 12,8 15,2 12 6 23 12 W 1016,4 44 54 0,0
10.12.2018 08:00:00 11,0 4,4 7,2 12,8 15,2 15 8 24 13 WSW 1015,8 48 0 0,0
10.12.2018 07:00:00 11,2 3,2 8,6 12,8 15,2 16 9 29 16 W 1015,1 59 0 0,0
10.12.2018 06:00:00 12,3 1,9 8,4 12,9 15,2 14 7 31 17 WNW 1014,7 60 0 0,0
10.12.2018 05:00:00 14,0 -0,5 7,0 12,8 15,2 19 10 34 18 SW 1013,8 60 0 0,0
10.12.2018 04:00:00 16,7 -4,0 12,1 12,9 15,2 17 9 56 30 W 1013,2 60 0 0,0
10.12.2018 03:00:00 16,7 -2,9 11,9 12,9 15,2 22 12 58 31 W 1012,1 60 0 0,0
10.12.2018 02:00:00 16,5 -2,1 10,3 12,9 15,2 33 18 64 34 W 1012,1 60 0 0,0
10.12.2018 01:00:00 14,1 0,7 8,7 12,9 15,2 16 9 36 20 NE 1012,5 60 0 0,0
10.12.2018 00:00:00 15,8 -0,5 10,3 12,9 15,2 14 8 48 26 ESE 1012,5 60 0 0,0
09.12.2018 23:00:00 16,3 0,0 11,2 12,9 15,2 17 9 69 37 SW 1011,7 60 0 0,0
09.12.2018 22:00:00 15,1 1,9 12,5 12,9 15,2 23 12 101 55 W 1012,1 60 0 0,0
09.12.2018 21:00:00 15,4 2,5 13,8 12,9 15,2 54 29 104 56 W 1011,9 60 0 0,0
09.12.2018 20:00:00 15,9 1,9 14,0 12,9 15,2 57 31 93 50 W 1011,2 60 0 0,0
09.12.2018 19:00:00 16,3 1,9 14,7 12,8 15,2 56 30 96 52 W 1011,8 60 0 0,0
09.12.2018 18:00:00 17,1 3,0 15,3 12,8 15,2 53 28 108 58 W 1011,3 60 0 0,0
09.12.2018 17:00:00 17,8 2,1 15,8 12,8 15,2 58 31 113 61 W 1010,8 60 15 0,0
09.12.2018 16:00:00 18,4 0,5 16,7 12,8 15,3 59 32 113 61 W 1010,3 17 58 0,0
09.12.2018 15:00:00 18,7 2,5 18,8 12,7 15,2 48 26 96 52 WNW 1009,9 18 60 0,0
09.12.2018 14:00:00 19,9 3,1 20,9 12,7 15,3 25 13 75 40 W 1009,9 21 60 0,0
09.12.2018 13:00:00 21,4 1,6 21,9 12,7 15,2 24 13 72 39 W 1009,6 22 60 0,0
09.12.2018 12:00:00 21,9 -0,8 22,7 12,8 15,3 42 23 86 47 WNW 1008,7 25 60 0,0
09.12.2018 11:00:00 22,4 0,2 20,2 12,8 15,3 37 20 89 48 W 1009,9 29 60 0,0
09.12.2018 10:00:00 21,5 -1,8 12,4 12,9 15,3 31 17 81 44 W 1010,8 36 60 0,0
09.12.2018 09:00:00 13,7 7,9 4,4 12,9 15,3 13 7 34 18 SSE 1011,9 19 27 0,0
09.12.2018 08:00:00 8,1 4,5 2,7 13,0 15,3 8 5 15 8 W 1013,2 60 0 0,0
09.12.2018 07:00:00 7,5 2,6 4,7 13,0 15,3 13 7 20 11 SSW 1013,6 20 0 0,0
09.12.2018 06:00:00 7,9 1,3 5,1 13,0 15,3 15 8 26 14 SW 1014,2 20 0 0,0
09.12.2018 05:00:00 8,7 1,4 4,3 13,1 15,3 17 9 27 14 SW 1015,2 20 0 0,0
09.12.2018 04:00:00 8,0 1,4 2,0 13,2 15,3 9 5 21 12 W 1015,6 20 0 0,0
09.12.2018 03:00:00 7,3 1,6 2,8 13,2 15,3 6 3 17 9 S 1016,4 20 0 0,0
09.12.2018 02:00:00 10,9 1,4 7,0 13,2 15,3 10 6 32 18 W 1016,3 50 0 0,0
09.12.2018 01:00:00 11,3 1,5 7,9 13,2 15,3 18 10 41 22 SW 1016,6 60 0 0,0
09.12.2018 00:00:00 10,8 1,9 8,1 13,2 15,3 19 10 39 21 WSW 1017,1 60 0 0,0
08.12.2018 23:00:00 11,0 2,0 7,8 13,3 15,3 22 12 37 20 SW 1017,4 60 0 0,0
08.12.2018 22:00:00 11,1 1,9 8,2 13,3 15,3 16 9 35 19 WSW 1017,8 60 0 0,0
08.12.2018 21:00:00 11,1 2,4 8,5 13,3 15,3 20 11 37 20 SW 1017,8 60 0 0,0
08.12.2018 20:00:00 11,4 2,4 8,2 13,3 15,3 15 8 29 16 SW 1017,7 60 0 0,0
08.12.2018 19:00:00 12,3 2,4 8,4 13,3 15,3 14 8 28 15 SW 1017,4 60 0 0,0
08.12.2018 18:00:00 12,7 3,9 4,8 13,2 15,3 13 7 25 13 WSW 1017,5 58 0 0,0
08.12.2018 17:00:00 12,0 4,5 5,7 13,2 15,3 4 2 15 8 W 1017,0 45 18 0,0
08.12.2018 16:00:00 15,9 2,7 13,8 13,2 15,3 9 5 32 17 WNW 1016,5 57 60 0,0
08.12.2018 15:00:00 16,4 3,1 18,8 13,2 15,3 17 9 26 14 NNW 1015,2 60 60 0,0
08.12.2018 14:00:00 16,5 2,8 19,4 13,2 15,3 16 8 36 19 NNE 1015,3 45 60 0,0
08.12.2018 13:00:00 16,5 4,8 20,0 13,2 15,3 20 11 34 19 NNW 1015,3 41 60 0,0
08.12.2018 12:00:00 17,0 3,3 19,6 13,2 15,3 10 5 32 18 NE 1015,4 48 60 0,0
08.12.2018 11:00:00 17,1 0,7 16,6 13,3 15,3 18 10 59 32 WSW 1014,6 40 60 0,0
08.12.2018 10:00:00 16,0 0,1 12,7 13,3 15,3 34 18 61 33 WNW 1014,9 34 60 0,0
08.12.2018 09:00:00 14,5 1,4 9,8 13,3 15,4 20 11 41 22 W 1014,7 41 55 0,0
08.12.2018 08:00:00 13,0 2,5 7,7 13,3 15,3 19 11 43 23 WSW 1013,9 50 0 0,0
08.12.2018 07:00:00 13,9 2,5 9,6 13,4 15,3 19 10 68 37 WNW 1013,8 60 0 0,0
08.12.2018 06:00:00 14,9 2,4 12,2 13,4 15,3 35 19 71 38 W 1012,2 60 0 0,0
08.12.2018 05:00:00 16,0 -1,1 5,4 13,4 15,3 34 18 80 43 W 1010,4 60 0 0,0
08.12.2018 04:00:00 9,7 7,1 6,1 13,5 15,3 9 5 22 12 SW 1010,2 20 0 0,0
08.12.2018 03:00:00 10,0 8,3 5,7 13,5 15,3 10 5 26 14 WSW 1010,5 20 0 0,0
08.12.2018 02:00:00 10,9 7,6 6,4 13,5 15,3 15 8 28 15 S 1011,6 50 0 0,0
08.12.2018 01:00:00 9,5 7,4 6,6 13,5 15,4 8 4 18 10 S 1013,8 20 0 0,2
08.12.2018 00:00:00 10,0 8,3 5,1 13,5 15,3 9 5 14 8 S 1015,1 20 0 0,0
07.12.2018 23:00:00 9,0 7,8 6,2 13,5 15,3 11 6 17 9 SSW 1015,7 20 0 0,0
07.12.2018 22:00:00 8,8 7,6 6,5 13,5 15,3 8 4 17 9 SW 1017,1 20 0 0,0
07.12.2018 21:00:00 9,3 8,2 4,9 13,5 15,3 10 5 14 8 SSW 1017,5 20 0 0,0
07.12.2018 20:00:00 9,6 8,4 5,5 13,5 15,4 7 4 11 6 SW 1018,5 11 0 0,0
07.12.2018 19:00:00 10,4 9,2 6,9 13,5 15,4 9 5 13 7 WNW 1018,7 16 0 0,0
07.12.2018 18:00:00 10,6 9,4 6,6 13,4 15,3 6 3 10 5 SW 1019,4 11 0 0,0
07.12.2018 17:00:00 13,7 11,2 8,0 13,4 15,3 2 1 11 6 SW 1020,2 20 24 0,0
07.12.2018 16:00:00 15,2 11,8 14,9 13,3 15,3 9 5 19 10 SE 1020,0 40 49 0,0
07.12.2018 15:00:00 16,2 11,8 20,4 13,3 15,3 11 6 21 11 SE 1020,6 53 60 0,0
07.12.2018 14:00:00 16,7 11,2 23,4 13,3 15,3 9 5 18 10 ESE 1021,0 20 60 0,0
07.12.2018 13:00:00 16,9 11,0 22,1 13,3 15,4 8 4 17 9 SE 1021,7 20 60 0,0
07.12.2018 12:00:00 16,7 10,1 19,7 13,3 15,4 6 3 16 8 SSW 1022,4 56 60 0,0
07.12.2018 11:00:00 15,1 8,8 14,0 13,4 15,4 11 6 26 14 SSW 1023,0 58 60 0,0
07.12.2018 10:00:00 12,5 7,6 9,8 13,4 15,4 18 10 31 17 SW 1023,4 52 60 0,0
07.12.2018 09:00:00 10,1 7,2 7,2 13,4 15,4 11 6 25 13 SSW 1023,2 60 18 0,0
07.12.2018 08:00:00 8,8 7,2 5,4 13,5 15,4 11 6 16 9 SW 1022,9 20 0 0,0
07.12.2018 07:00:00 8,1 6,9 5,7 13,5 15,4 8 5 13 7 SW 1022,5 20 0 0,0
07.12.2018 06:00:00 8,2 7,1 6,1 13,5 15,4 8 4 13 7 SSW 1022,5 28 0 0,0
07.12.2018 05:00:00 8,5 7,3 6,5 13,5 15,4 8 4 11 6 SW 1022,7 26 0 0,0
07.12.2018 04:00:00 9,0 7,8 6,8 13,5 15,4 8 4 10 5 SW 1022,5 20 0 0,0
07.12.2018 03:00:00 10,2 8,6 8,4 13,5 15,4 6 4 9 5 SW 1022,7 20 0 0,0
07.12.2018 02:00:00 10,6 9,2 8,9 13,5 15,4 5 3 9 5 SW 1023,0 22 0 0,0
07.12.2018 01:00:00 10,5 8,9 9,2 13,5 15,4 7 4 13 7 SSW 1023,0 20 0 0,0
07.12.2018 00:00:00 13,0 10,4 10,4 13,5 15,4 6 4 18 10 WNW 1023,2 36 0 0,0
06.12.2018 23:00:00 11,9 9,6 8,4 13,5 15,4 9 5 13 7 W 1022,9 14 0 0,0
06.12.2018 22:00:00 12,1 10,0 6,8 13,5 15,4 6 4 12 7 W 1022,4 19 0 0,0
06.12.2018 21:00:00 10,6 8,7 5,9 13,5 15,4 7 4 10 5 W 1021,7 12 0 0,0
06.12.2018 20:00:00 12,0 9,4 7,2 13,4 15,4 0 0 10 5 N 1021,5 16 0 0,0
06.12.2018 19:00:00 13,4 10,0 9,6 13,4 15,4 7 4 19 10 WNW 1021,2 19 0 0,0
06.12.2018 18:00:00 14,4 10,6 13,1 13,3 15,4 11 6 21 11 NW 1020,7 20 0 0,0
06.12.2018 17:00:00 14,0 11,2 13,0 13,3 15,4 13 7 26 14 NNW 1019,7 15 3 0,0
06.12.2018 16:00:00 14,8 11,6 14,3 13,3 15,4 19 10 34 18 NNW 1019,4 16 0 0,0
06.12.2018 15:00:00 15,7 12,1 15,4 13,2 15,4 18 10 28 15 N 1018,9 19 43 0,0
06.12.2018 14:00:00 17,5 12,2 16,4 13,2 15,4 2 1 12 7 WSW 1018,5 42 27 0,0
06.12.2018 13:00:00 15,7 12,1 15,6 13,3 15,4 6 4 14 8 NE 1019,1 37 21 0,0
06.12.2018 12:00:00 14,3 9,9 14,7 13,2 15,4 4 2 13 7 S 1019,8 20 2 0,0
06.12.2018 11:00:00 15,3 9,9 11,4 13,3 15,4 8 4 14 8 SSW 1020,3 54 36 0,0
06.12.2018 10:00:00 12,0 7,7 10,3 13,3 15,4 11 6 19 11 SSW 1020,3 58 4 0,0
06.12.2018 09:00:00 10,4 7,3 9,0 13,3 15,4 9 5 16 9 SSW 1020,8 59 0 0,0
06.12.2018 08:00:00 10,2 7,1 7,5 13,3 15,4 10 5 14 8 SSW 1020,9 60 0 0,0
06.12.2018 07:00:00 8,9 6,9 5,9 13,4 15,4 8 4 13 7 SW 1020,6 20 0 0,0
06.12.2018 06:00:00 7,9 6,2 5,7 13,4 15,4 8 5 13 7 SW 1021,0 60 0 0,0
06.12.2018 05:00:00 9,0 6,3 6,0 13,4 15,4 8 4 16 9 S 1021,3 60 0 0,0
06.12.2018 04:00:00 10,2 7,3 7,5 13,4 15,4 9 5 18 10 SW 1022,0 55 0 0,0
06.12.2018 03:00:00 11,0 7,9 9,5 13,4 15,4 9 5 13 7 S 1022,8 60 0 0,0
06.12.2018 02:00:00 10,8 8,2 9,5 13,4 15,5 8 4 16 8 SW 1022,9 60 0 0,0
06.12.2018 01:00:00 11,2 8,2 8,4 13,4 15,4 10 6 17 9 SSW 1022,9 60 0 0,0
06.12.2018 00:00:00 10,4 8,2 8,5 13,5 15,4 8 4 15 8 SW 1023,9 60 0 0,0
05.12.2018 23:00:00 10,3 8,4 7,9 13,5 15,5 7 4 11 6 SW 1024,2 55 0 0,0
05.12.2018 22:00:00 9,9 8,5 7,4 13,5 15,4 9 5 13 7 SW 1024,1 45 0 0,0
05.12.2018 21:00:00 9,2 8,3 6,8 13,5 15,5 8 4 10 5 SW 1024,1 38 0 0,0
05.12.2018 20:00:00 9,3 8,2 6,9 13,4 15,5 8 5 10 5 SSW 1024,0 19 0 0,0
05.12.2018 19:00:00 10,9 9,7 5,5 13,4 15,4 7 4 10 5 SW 1024,1 16 0 0,0
05.12.2018 18:00:00 12,1 10,8 6,3 13,4 15,5 6 3 9 5 WSW 1024,0 13 0 0,0
05.12.2018 17:00:00 14,1 11,8 7,9 13,3 15,5 4 2 9 5 SW 1023,6 9 21 0,0
05.12.2018 16:00:00 16,8 13,1 17,2 13,3 15,4 7 4 14 8 SE 1023,6 57 60 0,0
05.12.2018 15:00:00 17,5 13,0 22,5 13,2 15,4 10 5 15 8 SE 1023,4 20 60 0,0
05.12.2018 14:00:00 17,9 13,6 25,5 13,2 15,4 8 4 16 9 ESE 1023,5 45 60 0,0
05.12.2018 13:00:00 18,1 12,3 24,4 13,2 15,4 9 5 15 8 ESE 1023,7 60 60 0,0
05.12.2018 12:00:00 17,9 9,5 20,5 13,3 15,5 5 3 17 9 SSE 1024,2 41 60 0,0
05.12.2018 11:00:00 16,0 5,3 15,9 13,3 15,5 13 7 21 11 SSW 1024,4 60 60 0,0
05.12.2018 10:00:00 13,8 4,9 10,8 13,4 15,5 11 6 21 11 SSW 1024,0 47 60 0,0
05.12.2018 09:00:00 12,1 4,1 7,6 13,4 15,5 12 6 21 12 SW 1023,5 46 60 0,0
05.12.2018 08:00:00 9,7 3,4 6,4 13,4 15,5 13 7 24 13 SSW 1023,1 27 0 0,0
05.12.2018 07:00:00 8,8 3,4 6,3 13,5 15,5 10 5 18 10 SW 1022,7 20 0 0,0
05.12.2018 06:00:00 9,2 3,8 6,1 13,5 15,5 10 5 18 10 SW 1022,4 20 0 0,0
05.12.2018 05:00:00 8,7 4,7 5,6 13,6 15,5 10 5 16 8 SSW 1022,0 20 0 0,0
05.12.2018 04:00:00 8,3 4,9 5,5 13,6 15,5 10 6 14 8 SSW 1021,6 20 0 0,0
05.12.2018 03:00:00 8,6 5,2 5,5 13,6 15,5 10 5 14 8 SW 1021,4 60 0 0,0
05.12.2018 02:00:00 9,1 5,5 3,9 13,7 15,5 8 4 14 8 SW 1021,0 60 0 0,0
05.12.2018 01:00:00 8,9 5,5 4,0 13,6 15,5 5 3 12 7 SW 1020,5 60 0 0,0
05.12.2018 00:00:00 9,9 6,2 6,4 13,7 15,5 10 5 15 8 SSW 1020,3 60 0 0,0
04.12.2018 23:00:00 9,7 7,0 5,4 13,7 15,5 9 5 13 7 SW 1020,1 60 0 0,0
04.12.2018 22:00:00 10,0 6,9 4,3 13,7 15,5 8 5 14 8 SW 1019,5 36 0 0,0
04.12.2018 21:00:00 10,6 8,4 4,7 13,7 15,5 4 2 11 6 SSW 1018,8 13 0 0,0
04.12.2018 20:00:00 13,9 8,7 5,8 13,6 15,5 9 5 27 14 SW 1017,8 48 0 0,0
04.12.2018 19:00:00 12,2 9,4 5,9 13,6 15,5 8 4 13 7 WSW 1017,2 23 0 0,0
04.12.2018 18:00:00 13,4 9,6 8,3 13,5 15,5 5 3 23 12 W 1016,3 24 0 0,0
04.12.2018 17:00:00 14,2 11,4 8,4 13,5 15,5 6 4 11 6 SSW 1015,8 7 5 0,0
04.12.2018 16:00:00 17,9 13,2 17,3 13,4 15,5 6 3 25 14 SSE 1015,4 60 60 0,0

tt = Température de l'air
td = dewpoint
tt 5cm = Température de l'air 5cm
tt -20cm = Température de l'air -20cm
tt -100cm = Température de l'air -100cm
ff = Vitesse du vent
fx = gusts
dd = Direction du vent
ppp = reduced air pressure
vv = visibility
sd = Ensoleillement
rr = Quantités de précipitations

stations d'obs. à proximité